Faribault, MN

6:17 PM CDT on April 26, 2018 (GMT -0500)
Faribault Municipal

Weather History for KFBL - December, 2012

Change the Weather History Date:

Sunday, December 30, 2012

  Actual Average Record
Temperature  
Mean Temperature 13 °F -  
Max Temperature 28 °F 20 °F 50 °F (2004)
Min Temperature -2 °F 4 °F -21 °F (1976)
Degree Days  
Heating Degree Days 52    
Moisture  
Dew Point 9 °F    
Average Humidity 89    
Maximum Humidity 100    
Minimum Humidity 74    
Precipitation  
Precipitation 0.00 in - - ()
Sea Level Pressure  
Sea Level Pressure 30.04 in    
Wind  
Wind Speed 4 mph (South)    
Max Wind Speed 16 mph    
Max Gust Speed 23 mph    
Visibility 8 miles    
Events Snow    
Averages and records for this station are not official NWS values.
T = Trace of Precipitation, MM = Missing Value Source: NWS Daily Summary

Daily Weather History Graph

Daily Weather History Graph

Search for Another Location

Airport or City:

Astronomy

Dec. 30, 2012 Rise Set
Actual Time 7:48 AM CST 4:43 PM CST
Civil Twilight 7:15 AM CST 5:16 PM CST
Nautical Twilight 6:39 AM CST 5:53 PM CST
Astronomical Twilight 6:03 AM CST 6:28 PM CST
Moon 7:21 PM CST (12/30) 8:52 AM CST (12/30)
Length of Visible Light 10h 00m
Length of Day
8h 54m
Waning Gibbous, 95% of the Moon is Illuminated
Dec 30
Waning Gibbous
Jan 4
Last Quarter
Jan 11
New
Jan 18
First Quarter
Jan 26
Full

Hourly Weather History & Observations

Time (CST) Temp. Windchill Dew Point Humidity Pressure Visibility Wind Dir Wind Speed Gust Speed Precip Events Conditions
12:14 AM -0.4 °F - -2.2 °F 92% 30.15 in 7.0 mi Calm Calm - N/A   Clear
12:34 AM -2.2 °F - -4.0 °F 92% 30.15 in 7.0 mi Calm Calm - N/A   Clear
12:54 AM -0.4 °F -8.3 °F -2.2 °F 92% 30.16 in 7.0 mi South 3.5 mph - N/A   Clear
1:14 AM -0.4 °F -8.3 °F -2.2 °F 92% 30.16 in 7.0 mi South 3.5 mph - N/A   Clear
1:34 AM -0.4 °F -8.3 °F -4.0 °F 85% 30.16 in 7.0 mi South 3.5 mph - N/A   Clear
1:54 AM -0.4 °F - -2.2 °F 92% 30.16 in 7.0 mi Calm Calm - N/A   Clear
2:14 AM -2.2 °F - -4.0 °F 92% 30.17 in 5.0 mi Calm Calm - N/A Snow Light Snow
2:34 AM -2.2 °F - -4.0 °F 92% 30.18 in 7.0 mi Calm Calm - N/A   Clear
2:54 AM -0.4 °F -8.3 °F -2.2 °F 92% 30.18 in 5.0 mi South 3.5 mph - N/A   Mostly Cloudy
3:14 AM -0.4 °F - -2.2 °F 92% 30.18 in 2.0 mi Calm Calm - N/A   Overcast
3:34 AM - - -2.2 °F N/A% 30.19 in 1.5 mi Calm Calm - N/A   Mist
3:54 AM -0.4 °F - -2.2 °F 92% 30.18 in 2.5 mi Calm Calm - N/A   Overcast
4:14 AM -0.4 °F - -2.2 °F 92% 30.19 in 4.0 mi Calm Calm - N/A   Overcast
4:34 AM -0.4 °F - -2.2 °F 92% 30.18 in 5.0 mi Calm Calm - N/A   Overcast
4:54 AM -0.4 °F - -2.2 °F 92% 30.17 in 3.0 mi Calm Calm - N/A   Overcast
5:14 AM -0.4 °F - -2.2 °F 92% 30.17 in 4.0 mi Calm Calm - N/A   Overcast
5:34 AM -0.4 °F - -2.2 °F 92% 30.16 in 5.0 mi Calm Calm - N/A   Mostly Cloudy
5:54 AM -0.4 °F - -2.2 °F 92% 30.16 in 5.0 mi Calm Calm - N/A   Scattered Clouds
6:14 AM -0.4 °F - -2.2 °F 92% 30.16 in 7.0 mi Calm Calm - N/A   Clear
6:34 AM -0.4 °F -8.3 °F -2.2 °F 92% 30.16 in 7.0 mi South 3.5 mph - N/A   Clear
6:54 AM -0.4 °F - -2.2 °F 92% 30.15 in 7.0 mi Calm Calm - N/A   Clear
7:14 AM 1.4 °F -6.2 °F -2.2 °F 85% 30.15 in 7.0 mi South 3.5 mph - N/A   Clear
7:34 AM 1.4 °F -8.3 °F -0.4 °F 92% 30.15 in 7.0 mi South 4.6 mph - N/A   Clear
7:54 AM 1.4 °F -8.3 °F -0.4 °F 92% 30.16 in 7.0 mi South 4.6 mph - N/A   Clear
8:14 AM 1.4 °F -8.3 °F -0.4 °F 92% 30.15 in 7.0 mi South 4.6 mph - N/A   Clear
8:34 AM 1.4 °F -9.9 °F 1.4 °F 100% 30.15 in 7.0 mi South 5.8 mph - N/A   Clear
8:53 AM 3.2 °F -7.8 °F 1.4 °F 92% 30.15 in 7.0 mi South 5.8 mph - N/A   Clear
9:14 AM 5.0 °F -6.9 °F 3.2 °F 92% 30.14 in 7.0 mi South 6.9 mph - N/A   Clear
9:34 AM 6.8 °F -3.5 °F 5.0 °F 92% 30.14 in 7.0 mi South 5.8 mph - N/A   Clear
9:54 AM 8.6 °F -2.6 °F 6.8 °F 92% 30.14 in 7.0 mi South 6.9 mph - N/A   Clear
10:14 AM 8.6 °F -1.3 °F 6.8 °F 92% 30.14 in 10.0 mi South 5.8 mph - N/A   Clear
10:34 AM 10.4 °F -1.5 °F 8.6 °F 92% 30.13 in 10.0 mi South 8.1 mph - N/A   Clear
10:54 AM 10.4 °F 0.8 °F 10.4 °F 100% 30.12 in 10.0 mi South 5.8 mph - N/A   Clear
11:14 AM 12.2 °F 0.7 °F 10.4 °F 92% 30.11 in 10.0 mi South 8.1 mph - N/A   Clear
11:34 AM 12.2 °F -0.2 °F 12.2 °F 100% 30.09 in 10.0 mi South 9.2 mph - N/A   Clear
11:54 AM 15.8 °F 5.1 °F 12.2 °F 86% 30.08 in 10.0 mi South 8.1 mph - N/A   Clear
12:14 PM 17.6 °F 5.7 °F 14.0 °F 86% 30.05 in 10.0 mi South 10.4 mph - N/A   Clear
12:34 PM 19.4 °F 8.6 °F 15.8 °F 86% 30.03 in 10.0 mi South 9.2 mph - N/A   Clear
12:54 PM 21.2 °F 10.1 °F 15.8 °F 80% 30.02 in 10.0 mi South 10.4 mph - N/A   Clear
1:14 PM 21.2 °F 9.5 °F 15.8 °F 80% 30.00 in 10.0 mi South 11.5 mph - N/A   Clear
1:34 PM 21.2 °F 10.1 °F 15.8 °F 80% 29.99 in 10.0 mi South 10.4 mph - N/A   Clear
1:54 PM 21.2 °F 13.6 °F 17.6 °F 86% 29.97 in 10.0 mi South 5.8 mph - N/A   Clear
2:14 PM 24.8 °F 17.9 °F 19.4 °F 80% 29.95 in 10.0 mi SSE 5.8 mph - N/A   Clear
2:34 PM 26.6 °F 18.2 °F 19.4 °F 74% 29.93 in 10.0 mi SE 8.1 mph - N/A   Clear
2:54 PM 26.6 °F 18.2 °F 19.4 °F 74% 29.93 in 10.0 mi SSE 8.1 mph - N/A   Clear
3:14 PM 26.6 °F 16.2 °F 19.4 °F 74% 29.92 in 10.0 mi SSE 11.5 mph 17.3 mph N/A   Clear
3:34 PM 28.4 °F 19.7 °F 21.2 °F 74% 29.91 in 10.0 mi SSE 9.2 mph - N/A   Clear
3:54 PM 26.6 °F 16.2 °F 19.4 °F 74% 29.91 in 10.0 mi South 11.5 mph 20.7 mph N/A   Clear
4:14 PM 26.6 °F 14.7 °F 19.4 °F 74% 29.91 in 10.0 mi South 15.0 mph - N/A   Clear
4:39 PM 24.8 °F 11.9 °F 17.6 °F 74% 29.91 in 10.0 mi South 16.1 mph 23.0 mph N/A   Clear
4:59 PM 23.0 °F 10.6 °F 17.6 °F 80% 29.91 in 10.0 mi South 13.8 mph - N/A   Clear
5:14 PM 21.2 °F 9.5 °F 17.6 °F 86% 29.91 in 10.0 mi South 11.5 mph - N/A   Clear
5:33 PM 21.2 °F 10.9 °F 17.6 °F 86% 29.91 in 10.0 mi South 9.2 mph - N/A   Clear
5:54 PM 19.4 °F 9.5 °F 15.8 °F 86% 29.91 in 10.0 mi South 8.1 mph - N/A   Clear
6:14 PM 21.2 °F 10.9 °F 17.6 °F 86% 29.91 in 10.0 mi South 9.2 mph - N/A   Clear
6:33 PM 21.2 °F 11.7 °F 17.6 °F 86% 29.91 in 10.0 mi South 8.1 mph - N/A   Clear
6:54 PM 19.4 °F 11.5 °F 17.6 °F 93% 29.91 in 10.0 mi South 5.8 mph - N/A   Scattered Clouds
7:14 PM 19.4 °F 11.5 °F 15.8 °F 86% 29.90 in 10.0 mi South 5.8 mph - N/A   Scattered Clouds
7:33 PM 19.4 °F 10.4 °F 15.8 °F 86% 29.90 in 10.0 mi South 6.9 mph - N/A   Clear
7:54 PM 17.6 °F 9.3 °F 15.8 °F 93% 29.90 in 10.0 mi South 5.8 mph - N/A   Clear
8:14 PM 17.6 °F 10.7 °F 15.8 °F 93% 29.90 in 10.0 mi South 4.6 mph - N/A   Clear
8:33 PM 15.8 °F 10.2 °F 15.8 °F 100% 29.90 in 10.0 mi South 3.5 mph - N/A   Clear
8:54 PM 15.8 °F 10.2 °F 15.8 °F 100% 29.89 in 10.0 mi South 3.5 mph - N/A   Clear
9:14 PM 15.8 °F - 15.8 °F 100% 29.89 in 10.0 mi Calm Calm - N/A   Clear
9:34 PM 14.0 °F 5.1 °F 14.0 °F 100% 29.90 in 7.0 mi SW 5.8 mph - N/A   Clear
9:54 PM 17.6 °F 7.3 °F 15.8 °F 93% 29.91 in 10.0 mi WSW 8.1 mph - N/A   Clear
10:14 PM 19.4 °F 9.5 °F 17.6 °F 93% 29.92 in 10.0 mi WSW 8.1 mph - N/A   Clear
10:34 PM 19.4 °F 8.6 °F 15.8 °F 86% 29.93 in 10.0 mi West 9.2 mph - N/A   Clear
10:54 PM 17.6 °F 6.4 °F 15.8 °F 93% 29.94 in 10.0 mi West 9.2 mph - N/A   Clear
11:14 PM 17.6 °F 6.4 °F 15.8 °F 93% 29.94 in 10.0 mi West 9.2 mph - N/A   Clear
11:34 PM 15.8 °F 2.7 °F 12.2 °F 86% 29.95 in 10.0 mi West 11.5 mph - N/A   Clear
11:54 PM 15.8 °F 3.4 °F 12.2 °F 86% 29.96 in 10.0 mi West 10.4 mph - N/A   Clear